{"data":{"norad_id":62768,"intl_designator":"2025-015L","name":"STARLINK-33601","alt_names":[],"object_type":"PAYLOAD","status":"ACTIVE","operator":null,"country":"US","launch_date":"2025-01-21","launch_site_code":"AFWTR","launch_vehicle":null,"mission":null,"orbit_class":"UNKNOWN","rcs_meters":null,"size_class":null,"mass_kg":null,"dimensions":null,"purposes":["comms"],"wikipedia_slug":null,"has_3d_model":false,"image_url":null,"decayed_at":null,"tle_current":{"epoch":"2026-05-24T22:45:06.456096Z","epoch_age_seconds":90273,"freshness":"FRESH","line1":"1 62768U 25015L   26144.94799139  .00014564  00000+0  44125-3 0  9998","line2":"2 62768  53.1593 327.7474 0000703  95.0811 265.0271 15.34405995 76163","mean_motion":15.34405995,"eccentricity":7.03e-5,"inclination_deg":53.1593,"raan_deg":327.7474,"arg_perigee_deg":95.0811,"mean_anomaly_deg":265.0271,"bstar":0.00044125,"rev_number":7616,"period_min":93.847391413509,"perigee_km":462.20451204547,"apogee_km":463.16633167799,"semimajor_km":6840.8224218617,"source":"CELESTRAK","updated_at":"2026-05-25T13:38:19.745138Z"}}}